Houghton, MI

8:56 PM EDT on June 21, 2018 (GMT -0400)
Houghton County Memorial

Weather History for KCMX - June, 2018

Change the Weather History Date:

Thursday, June 14, 2018

  Actual Average Record
Temperature  
Mean Temperature 62 °F -  
Max Temperature 77 °F 72 °F 96 °F (1988)
Min Temperature 48 °F 51 °F 35 °F (1958)
Degree Days  
Heating Degree Days 4    
Growing Degree Days 12 (Base 50)    
Moisture  
Dew Point 44 °F    
Average Humidity 51    
Maximum Humidity 83    
Minimum Humidity 37    
Precipitation  
Precipitation 0.00 in - - ()
Sea Level Pressure  
Sea Level Pressure 30.02 in    
Wind  
Wind Speed 8 mph (East)    
Max Wind Speed 13 mph    
Max Gust Speed -    
Visibility 10 miles    
Events      
Averages and records for this station are not official NWS values.
T = Trace of Precipitation, MM = Missing Value Source: NWS Daily Summary

Daily Weather History Graph

Daily Weather History Graph

Search for Another Location

Airport or City:

Astronomy

Jun. 14, 2018 Rise Set
Actual Time 5:57 AM EDT 9:51 PM EDT
Civil Twilight 5:17 AM EDT 10:31 PM EDT
Nautical Twilight 4:22 AM EDT 11:25 PM EDT
Astronomical Twilight 3:00 AM EDT 12:48 AM EDT
Moon 6:59 AM EDT (6/14) 10:47 PM EDT (6/14)
Length of Visible Light 17h 13m
Length of Day
15h 53m
New Moon, 1% of the Moon is Illuminated
Jun 14
New Moon
Jun 20
First Quarter
Jun 28
Full
Jul 6
Last Quarter
Jul 12
New

Hourly Weather History & Observations

Time (EDT) Temp. Dew Point Humidity Pressure Visibility Wind Dir Wind Speed Gust Speed Precip Events Conditions
12:53 AM 57.9 °F 39.0 °F 49% 29.96 in 10.0 mi WNW 11.5 mph - N/A   Clear
1:53 AM 57.0 °F 39.0 °F 51% 29.96 in 10.0 mi NW 5.8 mph - N/A   Clear
3:53 AM 50.0 °F 41.0 °F 71% 29.98 in 10.0 mi NNE 3.5 mph - N/A   Clear
4:53 AM 48.0 °F 43.0 °F 83% 30.01 in 10.0 mi West 4.6 mph - N/A   Clear
5:53 AM 48.9 °F 42.1 °F 77% 30.02 in 10.0 mi Calm Calm - N/A   Clear
6:53 AM 51.1 °F 45.0 °F 80% 30.03 in 10.0 mi Calm Calm - N/A   Clear
7:53 AM 64.9 °F 46.0 °F 50% 30.03 in 10.0 mi East 4.6 mph - N/A   Clear
8:53 AM 64.9 °F 46.0 °F 50% 30.04 in 10.0 mi East 8.1 mph - N/A   Clear
9:53 AM 66.0 °F 46.0 °F 48% 30.04 in 10.0 mi East 6.9 mph - N/A   Clear
10:53 AM 69.1 °F 46.0 °F 44% 30.04 in 10.0 mi SSE 5.8 mph - N/A   Clear
11:53 AM 73.0 °F 46.0 °F 38% 30.05 in 10.0 mi SSE 8.1 mph - N/A   Clear
12:53 PM 75.0 °F 46.9 °F 37% 30.05 in 10.0 mi SE 8.1 mph - N/A   Clear
1:53 PM 75.9 °F 48.0 °F 37% 30.05 in 10.0 mi East 8.1 mph - N/A   Clear
2:53 PM 75.0 °F 48.0 °F 38% 30.05 in 10.0 mi ESE 10.4 mph - N/A   Clear
3:53 PM 73.9 °F 48.9 °F 41% 30.04 in 10.0 mi East 11.5 mph - N/A   Clear
4:53 PM 69.1 °F 45.0 °F 42% 30.04 in 10.0 mi East 11.5 mph - N/A   Clear
5:53 PM 69.1 °F 45.0 °F 42% 30.03 in 10.0 mi East 11.5 mph - N/A   Clear
6:53 PM 68.0 °F 44.1 °F 42% 30.01 in 10.0 mi East 9.2 mph - N/A   Clear
7:53 PM 64.9 °F 42.1 °F 43% 30.00 in 10.0 mi East 12.7 mph - N/A   Clear
8:53 PM 62.1 °F 42.1 °F 48% 30.00 in 10.0 mi East 9.2 mph - N/A   Clear
9:53 PM 60.1 °F 42.1 °F 51% 30.01 in 10.0 mi East 8.1 mph - N/A   Clear
10:53 PM 59.0 °F 41.0 °F 51% 30.02 in 10.0 mi East 9.2 mph - N/A   Clear
11:53 PM 59.0 °F 41.0 °F 51% 30.01 in 10.0 mi ENE 10.4 mph - N/A   Clear